OK2AF-5 Weather Reports


time (UTC)temp
F
wind
direction
speed
knots
gust
knots
rain 1hr
in
rain 24hr
in
rain mn
in
humidity
%
barometer
mb
20260905194737 0 315 0.0 0.0 0.00 0.09 0.09 1021.5
20260905193815 0 315 0.0 0.0 0.00 0.09 0.09 1021.3
20260905192921 0 315 0.0 0.0 0.00 0.09 0.09 1021.2
20260905192026 0 315 0.0 0.0 0.00 0.09 0.09 1021.1
20260905191132 0 315 0.0 0.0 0.00 0.09 0.09 1021.0
20260905190238 0 315 0.0 0.0 0.00 0.09 0.09 1020.9
20260905185338 0 315 0.0 0.0 0.00 0.09 0.09 1020.7
20260905184441 0 315 0.0 0.0 0.00 0.09 0.09 1020.3
20260905183546 0 315 0.0 0.0 0.00 0.09 0.09 1020.1
20260905182647 0 315 0.0 0.0 0.00 0.09 0.09 1020.1
20260905181751 0 315 0.0 0.0 0.00 0.09 0.09 1019.9
20260905180856 0 315 0.0 0.0 0.00 0.09 0.09 1019.7
20260905175957 0 315 0.0 0.0 0.00 0.09 0.09 1019.5
20260905175103 0 315 0.0 0.9 0.00 0.09 0.09 1019.2
20260905174211 0 315 0.9 2.6 0.00 0.09 0.09 1019.0
20260905173316 0 315 1.7 3.5 0.00 0.09 0.09 1018.7
20260905172422 0 0 2.6 5.2 0.00 0.09 0.09 1018.2
20260905171528 0 45 4.3 6.1 0.00 0.09 0.09 1018.3
20260905170633 0 45 3.5 4.3 0.00 0.09 0.09 1018.1
20260905165740 0 45 2.6 6.1 0.00 0.09 0.09 1018.0
20260905164844 0 45 2.6 7.8 0.00 0.09 0.09 1017.7
20260905163951 0 315 2.6 7.0 0.00 0.09 0.09 1017.6
20260905163057 0 0 3.5 7.0 0.00 0.09 0.09 1017.5
20260905162159 0 0 2.6 7.8 0.00 0.09 0.09 1017.2
20260905161300 0 0 3.5 8.7 0.00 0.09 0.09 1017.1
20260905160405 0 45 3.5 12.2 0.00 0.09 0.09 1017.0
20260905155510 0 0 4.3 10.4 0.00 0.09 0.09 1017.1
20260905154613 0 0 3.5 11.3 0.00 0.09 0.09 1017.1
20260905153721 0 0 7.8 11.3 0.00 0.09 0.09 1017.1
20260905152828 0 45 5.2 14.8 0.00 0.09 0.09 1017.0
20260905151932 0 315 9.6 13.0 0.00 0.09 0.09 1016.9
20260905151031 0 0 7.8 13.9 0.00 0.09 0.09 1016.8
20260905150130 0 0 3.5 14.8 0.00 0.09 0.09 1016.6
20260905145229 0 0 8.7 18.2 0.00 0.09 0.09 1016.5
20260905144327 0 0 2.6 14.8 0.00 0.09 0.09 1016.5
20260905143426 0 315 7.0 19.1 0.00 0.09 0.09 1016.5
20260905142524 0 0 4.3 11.3 0.00 0.09 0.09 1016.5
20260905141622 0 0 5.2 13.0 0.00 0.09 0.09 1016.9
20260905140721 0 315 7.8 14.8 0.00 0.09 0.09 1016.7
20260905135819 0 0 4.3 17.4 0.00 0.09 0.09 1016.9
20260905134919 0 0 7.8 18.2 0.00 0.09 0.09 1016.8
20260905134017 0 315 5.2 16.5 0.00 0.09 0.09 1017.0
20260905133116 0 315 8.7 16.5 0.00 0.09 0.09 1016.8
20260905131305 0 315 5.2 18.2 0.00 0.09 0.09 1017.1
20260905130402 0 0 9.6 19.1 0.00 0.09 0.09 1017.2
20260905125501 0 315 9.6 17.4 0.00 0.09 0.09 1017.2
20260905124601 0 315 5.2 18.2 0.00 0.09 0.09 1017.1
20260905123658 0 45 10.4 17.4 0.00 0.09 0.09 1017.1
20260905122754 0 0 4.3 18.2 0.00 0.09 0.09 1017.2
20260905121850 0 315 8.7 16.5 0.00 0.09 0.09 1017.2
20260905120949 0 315 4.3 18.2 0.00 0.09 0.09 1017.2
20260905120047 0 0 11.3 18.2 0.00 0.09 0.09 1017.5
20260905115147 0 315 10.4 20.0 0.00 0.09 0.09 1017.1
20260905114246 0 315 8.7 20.0 0.00 0.09 0.09 1017.4
20260905113344 0 315 6.1 18.2 0.00 0.09 0.09 1017.3
20260905112447 0 0 6.1 15.6 0.00 0.09 0.09 1017.3
20260905111552 0 315 7.8 21.7 0.00 0.09 0.09 1017.4
20260905110657 0 315 4.3 19.1 0.00 0.09 0.09 1017.2
20260905105804 0 0 7.8 16.5 0.00 0.09 0.09 1017.5
20260905104910 0 315 9.6 18.2 0.00 0.09 0.09 1017.5
20260905104016 0 315 4.3 13.9 0.00 0.09 0.09 1017.5
20260905103122 0 0 11.3 16.5 0.00 0.09 0.09 1017.6
20260905102228 0 0 8.7 13.0 0.00 0.09 0.09 1017.9
20260905101337 0 0 5.2 12.2 0.00 0.09 0.09 1017.7
20260905100443 0 90 7.0 9.6 0.00 0.09 0.09 1017.5
20260905095545 0 45 2.6 13.9 0.00 0.09 0.09 1017.8
20260905094646 0 0 7.0 13.0 0.00 0.09 0.09 1017.9
20260905093747 0 315 7.0 14.8 0.00 0.09 0.09 1017.7
20260905092847 0 315 2.6 11.3 0.00 0.09 0.09 1017.6
20260905091951 0 315 4.3 11.3 0.00 0.09 0.09 1017.9
20260905091057 0 0 4.3 11.3 0.00 0.09 0.09 1018.0
20260905090203 0 0 3.5 8.7 0.00 0.09 0.09 1018.0
20260905085307 0 315 2.6 7.8 0.00 0.09 0.09 1017.8
20260905084411 0 0 5.2 12.2 0.00 0.09 0.09 1017.8
20260905083516 0 0 3.5 10.4 0.00 0.09 0.09 1017.7
20260905082622 0 315 6.1 12.2 0.00 0.09 0.09 1017.8
20260905081726 0 0 5.2 13.0 0.00 0.09 0.09 1017.9
20260905080831 0 45 4.3 10.4 0.00 0.09 0.09 1017.7
20260905075935 0 0 6.1 12.2 0.00 0.09 0.09 1017.6
20260905075040 0 315 5.2 12.2 0.00 0.09 0.09 1017.6
20260905074146 0 0 4.3 10.4 0.00 0.09 0.09 1017.5
20260905073248 0 0 3.5 7.8 0.00 0.09 0.09 1017.7
20260905072355 0 315 3.5 7.0 0.00 0.09 0.09 1017.7
20260905071500 0 315 0.9 6.1 0.00 0.09 0.09 1017.5
20260905070601 0 338 2.6 8.7 0.00 0.09 0.09 1017.8
20260905065704 0 0 1.7 7.0 0.00 0.09 0.09 1017.9
20260905064811 0 0 0.9 8.7 0.00 0.09 0.09 1017.9
20260905063913 0 0 2.6 7.0 0.00 0.09 0.09 1017.8
20260905063015 0 270 3.5 10.4 0.00 0.09 0.09 1018.0
20260905062122 0 0 2.6 7.8 0.00 0.09 0.09 1017.9
20260905061228 0 45 4.3 8.7 0.00 0.09 0.09 1017.6
20260905060332 0 338 6.1 7.8 0.00 0.09 0.09 1017.5
20260905055436 0 315 3.5 9.6 0.03 0.09 0.09 1017.7
20260905054540 0 0 6.1 6.1 0.03 0.09 0.09 1017.6
20260905053645 0 0 1.7 6.1 0.03 0.09 0.09 1016.5
20260905052749 0 270 0.9 6.1 0.03 0.09 0.09 1016.6
20260905051855 0 90 3.5 7.0 0.01 0.07 0.07 1017.0
20260905050957 0 0 4.3 7.8 0.00 0.06 0.06 1017.3
20260905050059 0 0 4.3 7.8 0.00 0.06 0.06 1017.2
20260905045205 0 315 0.9 10.4 0.03 0.03 0.03 1017.3
20260905044312 0 0 7.0 8.7 0.01 0.01 0.01 1017.1
20260905043417 0 45 5.2 12.2 0.00 0.00 0.00 1016.8
20260905042524 0 315 5.2 12.2 0.00 0.00 0.00 1016.5
20260905041629 0 0 1.7 8.7 0.00 0.00 0.00 1016.5
20260905040734 0 315 4.3 5.2 0.00 0.00 0.00 1016.2
20260905035840 0 0 2.6 4.3 0.00 0.00 0.00 1015.3
20260905034944 0 0 1.7 5.2 0.00 0.00 0.00 1015.7
20260905034020 0 0 1.7 6.1 0.00 0.00 0.00 1015.4
20260905033125 0 315 4.3 5.2 0.00 0.00 0.00 1015.5
20260905032231 0 315 2.6 4.3 0.00 0.00 0.00 1015.0
20260905031337 0 315 0.9 5.2 0.00 0.00 0.00 1014.8
20260905030442 0 315 4.3 6.1 0.00 0.00 0.00 1015.7
20260905025546 0 315 2.6 7.8 0.00 0.00 0.00 1015.4
20260905024649 0 0 7.0 9.6 0.00 0.00 0.00 1015.0
20260905023755 0 0 4.3 8.7 0.00 0.00 0.00 1014.8
20260905022900 0 0 1.7 7.8 0.00 0.00 0.00 1014.9
20260905022005 0 45 4.3 8.7 0.00 0.00 0.00 1014.6
20260905021111 0 45 2.6 5.2 0.00 0.00 0.00 1014.6
20260905020217 0 0 3.5 5.2 0.00 0.00 0.00 1014.6
20260905015323 0 0 1.7 4.3 0.00 0.00 0.00 1014.2
20260905014429 0 45 1.7 4.3 0.00 0.00 0.00 1013.9
20260905013537 0 45 2.6 8.7 0.00 0.00 0.00 1014.1
20260905012643 0 45 4.3 7.8 0.00 0.00 0.00 1014.0
20260905011748 0 45 4.3 7.0 0.00 0.00 0.00 1014.1
20260905010853 0 0 4.3 9.6 0.00 0.00 0.00 1014.1
20260905010000 0 45 5.2 13.0 0.00 0.00 0.00 1014.1
20260905005104 0 0 5.2 10.4 0.00 0.00 0.00 1014.1
20260905004211 0 45 3.5 14.8 0.00 0.00 0.00 1013.9
20260905003317 0 45 6.1 12.2 0.00 0.00 0.00 1013.7
20260905002422 0 315 7.0 13.9 0.00 0.00 0.00 1013.5
20260905001529 0 0 8.7 15.6 0.00 0.00 0.00 1013.2
20260905000634 0 45 9.6 13.0 0.00 0.00 0.00 1013.2
20260904235739 0 45 7.0 13.0 0.00 0.00 0.00 1013.2
20260904234840 0 0 9.6 18.2 0.00 0.00 0.00 1012.6
20260904233944 0 0 7.8 20.0 0.00 0.00 0.00 1012.0
20260904232157 0 0 4.3 7.8 0.00 0.00 0.00 1010.0
20260904231301 0 315 3.5 7.8 0.00 0.00 0.00 1009.7
20260904230405 0 270 4.3 9.6 0.00 0.00 0.00 1009.5
20260904225511 0 315 5.2 9.6 0.00 0.00 0.00 1009.5
20260904224617 0 315 2.6 8.7 0.00 0.00 0.00 1009.5
20260904223722 0 248 2.6 7.8 0.00 0.00 0.00 1009.6
20260904222826 0 270 2.6 8.7 0.00 0.00 0.00 1009.6
20260904221928 0 270 5.2 7.0 0.00 0.00 0.00 1009.6
20260904221038 0 315 0.9 8.7 0.00 0.00 0.00 1009.6
20260904220143 0 225 3.5 8.7 0.00 0.00 0.00 1009.6
20260904215248 0 270 2.6 7.8 0.00 0.00 0.00 1009.6
20260904214354 0 315 0.9 6.1 0.00 0.00 0.00 1009.6
20260904213457 0 270 1.7 11.3 0.00 0.00 0.00 1009.5
20260904212602 0 270 2.6 4.3 0.00 0.00 0.00 1009.5
20260904211707 0 315 4.3 7.8 0.00 0.00 0.00 1009.4
20260904210812 0 248 2.6 5.2 0.00 0.00 0.00 1009.5
20260904205919 0 270 2.6 4.3 0.00 0.00 0.00 1009.6
20260904205026 0 270 0.9 6.1 0.00 0.00 0.00 1009.7
20260904204138 0 270 2.6 7.0 0.00 0.00 0.00 1009.7
20260904203239 0 225 5.2 7.8 0.00 0.00 0.00 1009.7
20260904202337 0 293 2.6 7.8 0.00 0.00 0.00 1009.8
20260904201436 0 270 4.3 7.8 0.00 0.00 0.00 1009.9
20260904200536 0 270 2.6 4.3 0.00 0.00 0.00 1009.9
20260904195634 0 270 1.7 4.3 0.00 0.00 0.00 1010.2